,,PA_Meas_PMT16A,,PR_Meas_QMR101_102,,RH_Meas_QMH101,,SR_Meas_QMS101,,TA_Meas_QMH101,,GenWind,,GenWind,
time,status,PA,status,PR,status,RH,status,SR,status,TA,status,DirAvg,status,SpdAvg,
2011-01-09, 00:00:05,VALID,915.548,VALID,0,VALID,85.4204,VALID,0,VALID,20.93,VALID,155,VALID,0,
2011-01-09, 00:01:05,VALID,915.548,VALID,0,VALID,85.4966,VALID,0,VALID,20.9511,VALID,155,VALID,0.202344,
2011-01-09, 00:02:05,VALID,915.542,VALID,0,VALID,84.4598,VALID,0,VALID,20.9316,VALID,155,VALID,0.380469,
2011-01-09, 00:03:05,VALID,915.547,VALID,0,VALID,84.1396,VALID,0,VALID,20.9511,VALID,155,VALID,0.567187,
2011-01-09, 00:04:05,VALID,915.533,VALID,0,VALID,84.597,VALID,0,VALID,20.9901,VALID,155,VALID,0.0621094,
2011-01-09, 00:05:05,VALID,915.54,VALID,0,VALID,84.2311,VALID,0,VALID,20.9901,VALID,155,VALID,0.13125,
2011-01-09, 00:06:05,VALID,915.55,VALID,0,VALID,84.7114,VALID,0,VALID,20.9901,VALID,155,VALID,0,
2011-01-09, 00:07:05,VALID,915.568,VALID,0,VALID,84.6428,VALID,0,VALID,20.9901,VALID,155,VALID,0,
2011-01-09, 00:08:05,VALID,915.562,VALID,0,VALID,84.6657,VALID,0,VALID,21.0096,VALID,155,VALID,0,
2011-01-09, 00:09:05,VALID,915.522,VALID,0,VALID,85.7863,VALID,0,VALID,21.0291,VALID,155,VALID,0.271875,
2011-01-09, 00:10:05,VALID,915.533,VALID,0,VALID,86.5105,VALID,0,VALID,21.0291,VALID,155,VALID,0.299219,
2011-01-09, 00:11:05,VALID,915.576,VALID,0,VALID,85.4509,VALID,0,VALID,20.9917,VALID,155,VALID,0.826172,
2011-01-09, 00:12:05,VALID,915.566,VALID,0,VALID,85.8625,VALID,0,VALID,20.9316,VALID,155,VALID,1.08086,
2011-01-09, 00:13:05,VALID,915.604,VALID,0,VALID,85.9845,VALID,0,VALID,20.873,VALID,155,VALID,0.678906,
2011-01-09, 00:14:05,VALID,915.643,VALID,0,VALID,85.5119,VALID,0,VALID,20.834,VALID,155,VALID,0.519922,
2011-01-09, 00:15:05,VALID,915.674,VALID,0,VALID,86.1827,VALID,0,VALID,20.8129,VALID,155,VALID,0.123047,
2011-01-09, 00:16:05,VALID,915.638,VALID,0,VALID,85.5881,VALID,0,VALID,20.8535,VALID,155,VALID,0.448047,
2011-01-09, 00:17:05,VALID,915.626,VALID,0,VALID,85.6262,VALID,0,VALID,20.834,VALID,245,VALID,0.832031,
2011-01-09, 00:18:05,VALID,915.648,VALID,0,VALID,85.9693,VALID,0,VALID,20.834,VALID,245,VALID,1.14258,
2011-01-09, 00:19:05,VALID,915.638,VALID,0,VALID,85.7787,VALID,0,VALID,20.834,VALID,245,VALID,0.863672,
2011-01-09, 00:20:05,VALID,915.645,VALID,0,VALID,85.4356,VALID,0,VALID,20.8535,VALID,245,VALID,0.655859,
2011-01-09, 00:21:05,VALID,915.629,VALID,0,VALID,86.5182,VALID,0,VALID,20.8746,VALID,245,VALID,0.630859,
2011-01-09, 00:22:05,VALID,915.644,VALID,0,VALID,85.5424,VALID,0,VALID,20.8551,VALID,245,VALID,0.865234,
2011-01-09, 00:23:05,VALID,915.62,VALID,0,VALID,86.198,VALID,0,VALID,20.8778,VALID,245,VALID,1.06641,
2011-01-09, 00:24:05,VALID,915.609,VALID,0,VALID,86.2742,VALID,0,VALID,20.8583,VALID,245,VALID,1.00312,
2011-01-09, 00:25:05,VALID,915.593,VALID,0,VALID,85.9464,VALID,0,VALID,20.7333,VALID,189,VALID,1.08867,
2011-01-09, 00:26:05,VALID,915.601,VALID,0,VALID,85.6491,VALID,0,VALID,20.7528,VALID,196,VALID,1.30195,
2011-01-09, 00:27:05,VALID,915.602,VALID,0,VALID,85.9311,VALID,0,VALID,20.795,VALID,196,VALID,0.203125,
2011-01-09, 00:28:05,VALID,915.591,VALID,0,VALID,86.8841,VALID,0,VALID,20.7966,VALID,157,VALID,0.976172,
2011-01-09, 00:29:05,VALID,915.614,VALID,0,VALID,85.7558,VALID,0,VALID,20.6959,VALID,159,VALID,1.59453,
2011-01-09, 00:30:05,VALID,915.612,VALID,0,VALID,85.9769,VALID,0,VALID,20.7576,VALID,158,VALID,1.34258,
2011-01-09, 00:31:05,VALID,915.624,VALID,0,VALID,85.5881,VALID,0,VALID,20.7349,VALID,151,VALID,1.15391,
2011-01-09, 00:32:05,VALID,915.617,VALID,0,VALID,85.1536,VALID,0,VALID,20.7528,VALID,137,VALID,0.95,
2011-01-09, 00:33:05,VALID,915.587,VALID,0,VALID,84.0558,VALID,0,VALID,20.8519,VALID,153,VALID,1.13789,
2011-01-09, 00:34:05,VALID,915.57,VALID,0,VALID,84.6428,VALID,0,VALID,20.873,VALID,170,VALID,0.7375,
2011-01-09, 00:35:05,VALID,915.563,VALID,0,VALID,84.0405,VALID,0,VALID,20.8699,VALID,130,VALID,0.963281,
2011-01-09, 00:36:05,VALID,915.524,VALID,0,VALID,83.8347,VALID,0,VALID,20.9105,VALID,142,VALID,0.967578,
2011-01-09, 00:37:05,VALID,915.547,VALID,0,VALID,84.1854,VALID,0,VALID,20.9105,VALID,142,VALID,0.548437,
2011-01-09, 00:38:05,VALID,915.497,VALID,0,VALID,83.0952,VALID,0,VALID,20.9722,VALID,144,VALID,1.24414,
2011-01-09, 00:39:05,VALID,915.46,VALID,0,VALID,83.2096,VALID,0.107441,VALID,20.969,VALID,116,VALID,0.544141,
2011-01-09, 00:40:05,VALID,915.452,VALID,0,VALID,82.6836,VALID,0.107441,VALID,21.0291,VALID,152,VALID,1.38242,
2011-01-09, 00:41:04,VALID,915.423,VALID,0,VALID,81.9822,VALID,0.107441,VALID,21.047,VALID,142,VALID,1.56719,
2011-01-09, 00:42:04,VALID,915.404,VALID,0,VALID,82.9275,VALID,0.107441,VALID,21.0892,VALID,125,VALID,1.21172,
2011-01-09, 00:43:04,VALID,915.404,VALID,0,VALID,83.8804,VALID,0,VALID,20.9901,VALID,134,VALID,1.18672,
2011-01-09, 00:44:04,VALID,915.378,VALID,0,VALID,83.8728,VALID,0,VALID,20.9105,VALID,81,VALID,1.16055,
2011-01-09, 00:45:04,VALID,915.366,VALID,0,VALID,84.0405,VALID,0,VALID,20.8925,VALID,122,VALID,1.02891,
2011-01-09, 00:46:04,VALID,915.302,VALID,0,VALID,84.2235,VALID,0,VALID,20.8129,VALID,122,VALID,1.24336,
2011-01-09, 00:47:04,VALID,915.275,VALID,0,VALID,84.8181,VALID,0,VALID,20.7966,VALID,122,VALID,1.30625,
2011-01-09, 00:48:04,VALID,915.245,VALID,0,VALID,84.5666,VALID,0,VALID,20.7771,VALID,122,VALID,1.71914,
2011-01-09, 00:49:04,VALID,915.254,VALID,0,VALID,84.9935,VALID,0,VALID,20.717,VALID,122,VALID,1.86172,
2011-01-09, 00:50:04,VALID,915.231,VALID,0,VALID,85.5347,VALID,0,VALID,20.6975,VALID,120,VALID,0.985156,
2011-01-09, 00:51:04,VALID,915.216,VALID,0,VALID,85.2374,VALID,0,VALID,20.6975,VALID,109,VALID,1.17227,
2011-01-09, 00:52:04,VALID,915.186,VALID,0,VALID,84.9249,VALID,0,VALID,20.678,VALID,129,VALID,1.67734,
2011-01-09, 00:53:04,VALID,915.189,VALID,0,VALID,85.8702,VALID,0,VALID,20.678,VALID,126,VALID,0.783594,
2011-01-09, 00:54:04,VALID,915.18,VALID,0,VALID,85.8168,VALID,0,VALID,20.6179,VALID,131,VALID,0.998828,
2011-01-09, 00:55:04,VALID,915.176,VALID,0,VALID,85.3746,VALID,0,VALID,20.5984,VALID,137,VALID,1.38984,
2011-01-09, 00:56:04,VALID,915.188,VALID,0,VALID,85.2527,VALID,0,VALID,20.66,VALID,134,VALID,1.26641,
2011-01-09, 00:57:04,VALID,915.173,VALID,0,VALID,84.6809,VALID,0,VALID,20.6795,VALID,146,VALID,1.33867,
2011-01-09, 00:58:04,VALID,915.162,VALID,0,VALID,84.4522,VALID,0,VALID,20.6975,VALID,130,VALID,2.50664,
2011-01-09, 00:59:04,VALID,915.128,VALID,0,VALID,83.667,VALID,0,VALID,20.7576,VALID,136,VALID,2.10117,
2011-01-09, 01:00:04,VALID,915.144,VALID,0,VALID,82.9733,VALID,0,VALID,20.7771,VALID,139,VALID,1.23945,
2011-01-09, 01:01:04,VALID,915.146,VALID,0,VALID,83.3773,VALID,0,VALID,20.8129,VALID,100,VALID,1.88516,
2011-01-09, 01:02:04,VALID,915.163,VALID,0,VALID,83.545,VALID,0,VALID,20.7934,VALID,135,VALID,1.36992,
2011-01-09, 01:03:04,VALID,915.181,VALID,0,VALID,83.6212,VALID,0,VALID,20.7318,VALID,126,VALID,1.59766,
2011-01-09, 01:04:04,VALID,915.161,VALID,0,VALID,83.5526,VALID,0,VALID,20.7333,VALID,129,VALID,1.54023,
2011-01-09, 01:05:04,VALID,915.098,VALID,0,VALID,83.1867,VALID,0,VALID,20.7739,VALID,104,VALID,1.34375,
2011-01-09, 01:06:04,VALID,915.083,VALID,0,VALID,83.5374,VALID,0,VALID,20.7138,VALID,141,VALID,1.57617,
2011-01-09, 01:07:04,VALID,915.073,VALID,0,VALID,82.9809,VALID,0,VALID,20.7349,VALID,132,VALID,2.23984,
2011-01-09, 01:08:04,VALID,915.038,VALID,0,VALID,83.6975,VALID,0,VALID,20.7739,VALID,158,VALID,1.2625,
2011-01-09, 01:09:04,VALID,915.041,VALID,0,VALID,83.1562,VALID,0,VALID,20.7365,VALID,150,VALID,2.08437,
2011-01-09, 01:10:04,VALID,915.015,VALID,0,VALID,83.5908,VALID,0,VALID,20.6748,VALID,142,VALID,1.31328,
2011-01-09, 01:11:04,VALID,915.012,VALID,0,VALID,83.8576,VALID,0,VALID,20.6569,VALID,133,VALID,1.20664,
2011-01-09, 01:12:04,VALID,915.005,VALID,0,VALID,83.5831,VALID,0,VALID,20.6179,VALID,119,VALID,1.57227,
2011-01-09, 01:13:04,VALID,915.004,VALID,0,VALID,83.0571,VALID,0,VALID,20.6748,VALID,119,VALID,1.80391,
2011-01-09, 01:14:04,VALID,914.994,VALID,0,VALID,82.5921,VALID,0,VALID,20.7739,VALID,130,VALID,2.19336,
2011-01-09, 01:15:04,VALID,914.96,VALID,0,VALID,82.1271,VALID,0,VALID,20.7934,VALID,129,VALID,1.76953,
2011-01-09, 01:16:04,VALID,914.933,VALID,0,VALID,81.38,VALID,0,VALID,20.8324,VALID,120,VALID,2.30781,
2011-01-09, 01:17:04,VALID,914.893,VALID,0,VALID,80.9531,VALID,0,VALID,20.8519,VALID,120,VALID,2.63555,
2011-01-09, 01:18:04,VALID,914.848,VALID,0,VALID,81.3571,VALID,0.107441,VALID,20.93,VALID,125,VALID,1.40234,
2011-01-09, 01:19:04,VALID,914.834,VALID,0,VALID,80.9683,VALID,0,VALID,20.969,VALID,128,VALID,1.98594,
2011-01-09, 01:20:04,VALID,914.811,VALID,0,VALID,81.2961,VALID,0,VALID,20.969,VALID,158,VALID,1.51641,
2011-01-09, 01:21:04,VALID,914.834,VALID,0,VALID,81.7993,VALID,0,VALID,20.93,VALID,103,VALID,1.39688,
2011-01-09, 01:22:04,VALID,914.802,VALID,0,VALID,81.784,VALID,0,VALID,20.8519,VALID,129,VALID,1.23789,
2011-01-09, 01:23:04,VALID,914.812,VALID,0,VALID,82.1423,VALID,0,VALID,20.8324,VALID,119,VALID,1.02461,
2011-01-09, 01:24:04,VALID,914.823,VALID,0,VALID,81.8526,VALID,0,VALID,20.8324,VALID,156,VALID,1.10977,
2011-01-09, 01:25:04,VALID,914.84,VALID,0,VALID,81.7383,VALID,0.107441,VALID,20.8714,VALID,110,VALID,1.10742,
2011-01-09, 01:26:04,VALID,914.802,VALID,0,VALID,80.9607,VALID,0,VALID,20.9105,VALID,115,VALID,2.81562,
2011-01-09, 01:27:04,VALID,914.821,VALID,0,VALID,81.319,VALID,0,VALID,20.9495,VALID,138,VALID,1.29727,
2011-01-09, 01:28:04,VALID,914.809,VALID,0,VALID,81.3342,VALID,0,VALID,20.9495,VALID,179,VALID,1.07383,
2011-01-09, 01:29:04,VALID,914.823,VALID,0,VALID,80.9073,VALID,0.107441,VALID,20.93,VALID,143,VALID,1.46953,
2011-01-09, 01:30:04,VALID,914.842,VALID,0,VALID,80.9226,VALID,0,VALID,20.9901,VALID,145,VALID,1.24297,
2011-01-09, 01:31:04,VALID,914.778,VALID,0,VALID,80.7472,VALID,0,VALID,20.9885,VALID,162,VALID,2.11484,
2011-01-09, 01:32:04,VALID,914.753,VALID,0,VALID,80.6481,VALID,0,VALID,21.0486,VALID,163,VALID,2.48125,
2011-01-09, 01:33:04,VALID,914.75,VALID,0,VALID,80.8235,VALID,0,VALID,21.0064,VALID,156,VALID,0.761328,
2011-01-09, 01:34:04,VALID,914.732,VALID,0,VALID,80.7853,VALID,0.107441,VALID,20.9885,VALID,143,VALID,1.79531,
2011-01-09, 01:35:04,VALID,914.721,VALID,0,VALID,81.3266,VALID,0.107441,VALID,21.0096,VALID,136,VALID,1.16719,
2011-01-09, 01:36:04,VALID,914.723,VALID,0,VALID,81.6087,VALID,0,VALID,20.9105,VALID,145,VALID,1.01914,
2011-01-09, 01:37:04,VALID,914.721,VALID,0,VALID,81.5858,VALID,0,VALID,20.8519,VALID,142,VALID,1.74141,
2011-01-09, 01:38:04,VALID,914.743,VALID,0,VALID,81.6087,VALID,0,VALID,20.8324,VALID,170,VALID,1.45508,
2011-01-09, 01:39:04,VALID,914.748,VALID,0,VALID,81.8602,VALID,0,VALID,20.8324,VALID,154,VALID,1.3918,
2011-01-09, 01:40:04,VALID,914.77,VALID,0,VALID,81.7993,VALID,0,VALID,20.8535,VALID,143,VALID,1.38281,
2011-01-09, 01:41:04,VALID,914.772,VALID,0,VALID,82.2643,VALID,0,VALID,20.8129,VALID,136,VALID,0.604297,
2011-01-09, 01:42:04,VALID,914.762,VALID,0,VALID,82.0889,VALID,0,VALID,20.7934,VALID,168,VALID,1.55273,
2011-01-09, 01:43:04,VALID,914.776,VALID,0,VALID,81.6468,VALID,0,VALID,20.7934,VALID,171,VALID,1.82852,
2011-01-09, 01:44:04,VALID,914.777,VALID,0,VALID,81.7916,VALID,0,VALID,20.8129,VALID,143,VALID,1.53633,
2011-01-09, 01:45:04,VALID,914.782,VALID,0,VALID,82.0737,VALID,0,VALID,20.7934,VALID,143,VALID,1.31055,
2011-01-09, 01:46:04,VALID,914.825,VALID,0,VALID,82.1194,VALID,0.107441,VALID,20.7739,VALID,168,VALID,0.648438,
2011-01-09, 01:47:04,VALID,914.796,VALID,0,VALID,82.3558,VALID,0.107441,VALID,20.7755,VALID,155,VALID,0.894531,
2011-01-09, 01:48:04,VALID,914.783,VALID,0,VALID,82.5311,VALID,0.107441,VALID,20.7349,VALID,141,VALID,1.29141,
2011-01-09, 01:49:04,VALID,914.8,VALID,0,VALID,82.7064,VALID,0,VALID,20.6959,VALID,157,VALID,1.58086,
2011-01-09, 01:50:04,VALID,914.781,VALID,0,VALID,82.5159,VALID,0,VALID,20.6959,VALID,159,VALID,1.50352,
2011-01-09, 01:51:04,VALID,914.784,VALID,0,VALID,82.5845,VALID,0,VALID,20.7154,VALID,158,VALID,1.90195,
2011-01-09, 01:52:04,VALID,914.773,VALID,0,VALID,82.7598,VALID,0,VALID,20.7365,VALID,158,VALID,0.886719,
2011-01-09, 01:53:04,VALID,914.749,VALID,0,VALID,82.8589,VALID,0,VALID,20.7154,VALID,142,VALID,0.754687,
2011-01-09, 01:54:04,VALID,914.756,VALID,0,VALID,83.0571,VALID,0,VALID,20.6959,VALID,126,VALID,0.750391,
2011-01-09, 01:55:04,VALID,914.726,VALID,0,VALID,83.2553,VALID,0,VALID,20.6374,VALID,136,VALID,0.971875,
2011-01-09, 01:56:04,VALID,914.714,VALID,0,VALID,83.6365,VALID,0,VALID,20.6194,VALID,135,VALID,1.12734,
2011-01-09, 01:57:04,VALID,914.682,VALID,0,VALID,84.1244,VALID,0,VALID,20.5009,VALID,103,VALID,0.937891,
2011-01-09, 01:58:04,VALID,914.676,VALID,0,VALID,84.2464,VALID,0,VALID,20.4423,VALID,124,VALID,0.869531,
2011-01-09, 01:59:04,VALID,914.637,VALID,0,VALID,84.4827,VALID,0,VALID,20.4033,VALID,120,VALID,1.30898,
2011-01-09, 02:00:04,VALID,914.602,VALID,0,VALID,84.8334,VALID,0,VALID,20.3643,VALID,113,VALID,1.30391,
2011-01-09, 02:01:04,VALID,914.601,VALID,0,VALID,84.8105,VALID,0,VALID,20.3253,VALID,109,VALID,1.43594,
2011-01-09, 02:02:04,VALID,914.564,VALID,0,VALID,84.5589,VALID,0,VALID,20.3058,VALID,109,VALID,1.66992,
2011-01-09, 02:03:04,VALID,914.556,VALID,0,VALID,84.8562,VALID,0,VALID,20.3253,VALID,114,VALID,0.895703,
2011-01-09, 02:04:04,VALID,914.523,VALID,0,VALID,85.0316,VALID,0.107441,VALID,20.2668,VALID,126,VALID,1.20547,
2011-01-09, 02:05:04,VALID,914.491,VALID,0,VALID,84.963,VALID,0,VALID,20.2473,VALID,127,VALID,1.52773,
2011-01-09, 02:06:04,VALID,914.477,VALID,0,VALID,85.1612,VALID,0,VALID,20.2489,VALID,112,VALID,1.16133,
2011-01-09, 02:07:04,VALID,914.473,VALID,0,VALID,85.4661,VALID,0,VALID,20.2293,VALID,110,VALID,1.23477,
2011-01-09, 02:08:04,VALID,914.418,VALID,0,VALID,85.2527,VALID,0,VALID,20.2473,VALID,102,VALID,1.41289,
2011-01-09, 02:09:04,VALID,914.421,VALID,0,VALID,85.5042,VALID,0,VALID,20.2489,VALID,106,VALID,1.55117,
2011-01-09, 02:10:04,VALID,914.391,VALID,0,VALID,85.6948,VALID,0,VALID,20.1888,VALID,115,VALID,1.78984,
2011-01-09, 02:11:04,VALID,914.395,VALID,0,VALID,85.7329,VALID,0,VALID,20.1498,VALID,130,VALID,1.78203,
2011-01-09, 02:12:04,VALID,914.392,VALID,0,VALID,85.9159,VALID,0,VALID,20.1498,VALID,126,VALID,1.14492,
2011-01-09, 02:13:04,VALID,914.378,VALID,0,VALID,85.611,VALID,0,VALID,20.1888,VALID,117,VALID,1.22187,
2011-01-09, 02:14:04,VALID,914.335,VALID,0,VALID,85.5957,VALID,0,VALID,20.2098,VALID,116,VALID,0.984766,
2011-01-09, 02:15:04,VALID,914.348,VALID,0,VALID,85.7863,VALID,0,VALID,20.1708,VALID,116,VALID,0.778516,
2011-01-09, 02:16:04,VALID,914.336,VALID,0,VALID,85.771,VALID,0,VALID,20.1498,VALID,116,VALID,1.36484,
2011-01-09, 02:17:04,VALID,914.336,VALID,0,VALID,85.9464,VALID,0,VALID,20.1513,VALID,111,VALID,1.46406,
2011-01-09, 02:18:04,VALID,914.317,VALID,0,VALID,86.2285,VALID,0,VALID,20.0718,VALID,119,VALID,0.8125,
2011-01-09, 02:19:04,VALID,914.374,VALID,0,VALID,86.1141,VALID,0,VALID,20.0733,VALID,168,VALID,1.25625,
2011-01-09, 02:20:04,VALID,914.33,VALID,0,VALID,86.1598,VALID,0,VALID,20.0718,VALID,180,VALID,0.898047,
2011-01-09, 02:21:04,VALID,914.319,VALID,0,VALID,86.1903,VALID,0,VALID,20.0718,VALID,131,VALID,0.764844,
2011-01-09, 02:22:04,VALID,914.324,VALID,0,VALID,86.4724,VALID,0,VALID,20.0733,VALID,131,VALID,0.853906,
2011-01-09, 02:23:04,VALID,914.282,VALID,0,VALID,86.5029,VALID,0,VALID,20.0133,VALID,134,VALID,1.06406,
2011-01-09, 02:24:04,VALID,914.29,VALID,0,VALID,86.6935,VALID,0,VALID,19.9938,VALID,150,VALID,1.63828,
2011-01-09, 02:25:04,VALID,914.242,VALID,0,VALID,86.7392,VALID,0.107441,VALID,20.0133,VALID,162,VALID,0.994922,
2011-01-09, 02:26:04,VALID,914.275,VALID,0,VALID,86.5486,VALID,0,VALID,19.9938,VALID,141,VALID,1.35391,
2011-01-09, 02:27:04,VALID,914.217,VALID,0,VALID,85.9083,VALID,0,VALID,20.0343,VALID,140,VALID,1.22227,
2011-01-09, 02:28:04,VALID,914.237,VALID,0,VALID,85.7406,VALID,0.107441,VALID,20.0718,VALID,120,VALID,1.57734,
2011-01-09, 02:29:04,VALID,914.192,VALID,0,VALID,85.6948,VALID,0,VALID,20.0928,VALID,125,VALID,1.58828,
2011-01-09, 02:30:04,VALID,914.177,VALID,0,VALID,85.8015,VALID,0,VALID,20.0913,VALID,125,VALID,1.66016,
2011-01-09, 02:31:04,VALID,914.192,VALID,0,VALID,85.8625,VALID,0,VALID,20.1318,VALID,135,VALID,0.83125,
2011-01-09, 02:32:04,VALID,914.162,VALID,0,VALID,85.771,VALID,0,VALID,20.1318,VALID,129,VALID,1.17969,
2011-01-09, 02:33:04,VALID,914.114,VALID,0,VALID,85.8015,VALID,0,VALID,20.0928,VALID,121,VALID,1.06367,
2011-01-09, 02:34:04,VALID,914.119,VALID,0,VALID,86.0989,VALID,0,VALID,20.0523,VALID,121,VALID,0.895312,
2011-01-09, 02:35:04,VALID,914.051,VALID,0,VALID,86.2285,VALID,0,VALID,20.0133,VALID,121,VALID,1.30898,
2011-01-09, 02:36:04,VALID,914.036,VALID,0,VALID,86.3657,VALID,0,VALID,20.0343,VALID,121,VALID,1.25469,
2011-01-09, 02:37:04,VALID,913.981,VALID,0,VALID,86.2437,VALID,0,VALID,19.9953,VALID,130,VALID,1.825,
2011-01-09, 02:38:04,VALID,913.959,VALID,0,VALID,86.3809,VALID,0,VALID,19.9953,VALID,110,VALID,1.45039,
2011-01-09, 02:39:04,VALID,913.942,VALID,0,VALID,86.6401,VALID,0,VALID,19.9563,VALID,114,VALID,1.31875,
2011-01-09, 02:40:04,VALID,913.927,VALID,0,VALID,86.2589,VALID,0,VALID,19.9758,VALID,118,VALID,1.59609,
2011-01-09, 02:41:04,VALID,913.905,VALID,0,VALID,85.6948,VALID,0,VALID,20.0133,VALID,137,VALID,1.54023,
2011-01-09, 02:42:04,VALID,913.901,VALID,0,VALID,85.611,VALID,0,VALID,20.0928,VALID,111,VALID,1.56719,
2011-01-09, 02:43:04,VALID,913.911,VALID,0,VALID,85.5195,VALID,0,VALID,20.1303,VALID,132,VALID,1.51172,
2011-01-09, 02:44:04,VALID,913.877,VALID,0,VALID,85.1993,VALID,0,VALID,20.1903,VALID,67,VALID,2.22578,
2011-01-09, 02:45:04,VALID,913.911,VALID,0,VALID,84.9325,VALID,0,VALID,20.2489,VALID,83,VALID,1.26797,
2011-01-09, 02:46:04,VALID,913.877,VALID,0,VALID,85.0773,VALID,0,VALID,20.2879,VALID,127,VALID,1.79375,
2011-01-09, 02:47:04,VALID,913.898,VALID,0,VALID,85.3975,VALID,0,VALID,20.2489,VALID,142,VALID,1.14531,
2011-01-09, 02:48:04,VALID,913.935,VALID,0,VALID,85.4966,VALID,0,VALID,20.1888,VALID,140,VALID,1.31953,
2011-01-09, 02:49:04,VALID,913.931,VALID,0,VALID,85.7939,VALID,0,VALID,20.1903,VALID,142,VALID,0.7625,
2011-01-09, 02:50:04,VALID,913.986,VALID,0,VALID,86.2132,VALID,0,VALID,20.1513,VALID,142,VALID,0.973828,
2011-01-09, 02:51:04,VALID,913.974,VALID,0,VALID,86.5105,VALID,0,VALID,20.0718,VALID,142,VALID,1.10352,
2011-01-09, 02:52:04,VALID,913.982,VALID,0,VALID,86.7164,VALID,0,VALID,20.0328,VALID,142,VALID,0.887109,
2011-01-09, 02:53:04,VALID,913.97,VALID,0,VALID,86.8993,VALID,0,VALID,20.0148,VALID,142,VALID,0.992188,
2011-01-09, 02:54:04,VALID,913.955,VALID,0,VALID,86.4419,VALID,0,VALID,20.0148,VALID,139,VALID,1.87656,
2011-01-09, 02:55:04,VALID,913.924,VALID,0,VALID,86.6172,VALID,0,VALID,19.9938,VALID,119,VALID,1.19687,
2011-01-09, 02:56:04,VALID,913.908,VALID,0,VALID,86.5105,VALID,0,VALID,20.0148,VALID,146,VALID,0.998047,
2011-01-09, 02:57:04,VALID,913.926,VALID,0,VALID,86.2818,VALID,0,VALID,20.0343,VALID,144,VALID,1.43945,
2011-01-09, 02:58:04,VALID,913.914,VALID,0,VALID,86.2742,VALID,0,VALID,20.0538,VALID,165,VALID,1.18945,
2011-01-09, 02:59:04,VALID,913.873,VALID,0,VALID,86.2742,VALID,0,VALID,20.0928,VALID,162,VALID,1.41875,
2011-01-09, 03:00:04,VALID,913.849,VALID,0,VALID,86.2056,VALID,0,VALID,20.1123,VALID,162,VALID,1.37188,
2011-01-09, 03:01:04,VALID,913.829,VALID,0,VALID,86.1903,VALID,0,VALID,20.0928,VALID,137,VALID,1.45313,
2011-01-09, 03:02:04,VALID,913.792,VALID,0,VALID,86.4724,VALID,0,VALID,20.0718,VALID,134,VALID,0.9,
2011-01-09, 03:03:04,VALID,913.765,VALID,0,VALID,86.7621,VALID,0,VALID,20.0538,VALID,127,VALID,1.34141,
2011-01-09, 03:04:04,VALID,913.794,VALID,0,VALID,86.846,VALID,0,VALID,20.0148,VALID,123,VALID,1.27695,
2011-01-09, 03:05:04,VALID,913.749,VALID,0,VALID,86.8612,VALID,0,VALID,19.9953,VALID,151,VALID,1.27656,
2011-01-09, 03:06:04,VALID,913.742,VALID,0,VALID,86.7697,VALID,0,VALID,20.0148,VALID,138,VALID,1.36133,
2011-01-09, 03:07:04,VALID,913.744,VALID,0,VALID,86.6782,VALID,0,VALID,20.0148,VALID,133,VALID,1.07461,
2011-01-09, 03:08:04,VALID,913.754,VALID,0,VALID,86.5029,VALID,0,VALID,20.0148,VALID,136,VALID,1.18672,
2011-01-09, 03:09:04,VALID,913.747,VALID,0,VALID,86.48,VALID,0,VALID,20.0343,VALID,143,VALID,1.76641,
2011-01-09, 03:10:04,VALID,913.71,VALID,0,VALID,86.5105,VALID,0,VALID,20.0538,VALID,147,VALID,1.98672,
2011-01-09, 03:11:04,VALID,913.7,VALID,0,VALID,86.2208,VALID,0,VALID,20.0928,VALID,149,VALID,2.14297,
2011-01-09, 03:12:04,VALID,913.714,VALID,0,VALID,86.137,VALID,0,VALID,20.1318,VALID,88,VALID,1.44766,
2011-01-09, 03:13:04,VALID,913.715,VALID,0,VALID,85.5728,VALID,0,VALID,20.2098,VALID,126,VALID,2.77617,
2011-01-09, 03:14:04,VALID,913.697,VALID,0,VALID,85.6033,VALID,0,VALID,20.2293,VALID,131,VALID,1.93828,
2011-01-09, 03:15:04,VALID,913.681,VALID,0,VALID,85.7101,VALID,0,VALID,20.2098,VALID,132,VALID,1.12852,
2011-01-09, 03:16:04,VALID,913.717,VALID,0,VALID,85.8549,VALID,0,VALID,20.1903,VALID,149,VALID,1.52227,
2011-01-09, 03:17:04,VALID,913.73,VALID,0,VALID,85.8778,VALID,0,VALID,20.1513,VALID,113,VALID,1.23086,
2011-01-09, 03:18:04,VALID,913.702,VALID,0,VALID,86.0303,VALID,0,VALID,20.1318,VALID,179,VALID,1.39648,
2011-01-09, 03:19:04,VALID,913.744,VALID,0,VALID,86.0912,VALID,0,VALID,20.1123,VALID,156,VALID,1.03398,
2011-01-09, 03:20:04,VALID,913.751,VALID,0,VALID,86.1522,VALID,0,VALID,20.0928,VALID,152,VALID,1.41797,
2011-01-09, 03:21:04,VALID,913.769,VALID,0,VALID,86.2742,VALID,0,VALID,20.0733,VALID,127,VALID,1.60312,
2011-01-09, 03:22:04,VALID,913.773,VALID,0,VALID,86.1903,VALID,0,VALID,20.0928,VALID,146,VALID,1.10742,
2011-01-09, 03:23:04,VALID,913.738,VALID,0,VALID,86.1827,VALID,0,VALID,20.0928,VALID,146,VALID,1.33633,
2011-01-09, 03:24:04,VALID,913.796,VALID,0,VALID,86.2742,VALID,0,VALID,20.0928,VALID,146,VALID,0.86875,
2011-01-09, 03:25:04,VALID,913.807,VALID,0,VALID,86.3581,VALID,0,VALID,20.0538,VALID,154,VALID,1.60117,
2011-01-09, 03:26:04,VALID,913.762,VALID,0,VALID,86.541,VALID,0,VALID,20.0343,VALID,181,VALID,1.47695,
2011-01-09, 03:27:04,VALID,913.735,VALID,0,VALID,86.7164,VALID,0,VALID,19.9548,VALID,152,VALID,0.963672,
2011-01-09, 03:28:04,VALID,913.731,VALID,0,VALID,86.9069,VALID,0,VALID,19.9758,VALID,156,VALID,1.45977,
2011-01-09, 03:29:04,VALID,913.729,VALID,0,VALID,87.067,VALID,0,VALID,19.9563,VALID,159,VALID,1.70273,
2011-01-09, 03:30:04,VALID,913.716,VALID,0,VALID,86.8612,VALID,0,VALID,19.9953,VALID,175,VALID,2.35625,
2011-01-09, 03:31:04,VALID,913.723,VALID,0,VALID,86.7164,VALID,0,VALID,20.0343,VALID,162,VALID,2.12266,
2011-01-09, 03:32:04,VALID,913.703,VALID,0,VALID,86.3199,VALID,0,VALID,20.0538,VALID,151,VALID,3.06172,
2011-01-09, 03:33:04,VALID,913.714,VALID,0,VALID,85.7634,VALID,0,VALID,20.1498,VALID,173,VALID,1.54492,
2011-01-09, 03:34:04,VALID,913.733,VALID,0,VALID,85.5424,VALID,0,VALID,20.2098,VALID,157,VALID,1.53711,
2011-01-09, 03:35:04,VALID,913.738,VALID,0,VALID,85.954,VALID,0,VALID,20.2083,VALID,159,VALID,2.4957,
2011-01-09, 03:36:04,VALID,913.762,VALID,0,VALID,86.2056,VALID,0,VALID,20.1708,VALID,169,VALID,1.54141,
2011-01-09, 03:37:04,VALID,913.775,VALID,0,VALID,86.2894,VALID,0,VALID,20.1498,VALID,152,VALID,1.72305,
2011-01-09, 03:38:04,VALID,913.789,VALID,0,VALID,86.4267,VALID,0,VALID,20.1513,VALID,172,VALID,2.15273,
2011-01-09, 03:39:04,VALID,913.784,VALID,0,VALID,86.5105,VALID,0,VALID,20.1708,VALID,150,VALID,1.2625,
2011-01-09, 03:40:04,VALID,913.837,VALID,0,VALID,86.6172,VALID,0,VALID,20.1318,VALID,143,VALID,2.06641,
2011-01-09, 03:41:04,VALID,913.838,VALID,0,VALID,86.6172,VALID,0,VALID,20.0928,VALID,136,VALID,1.80313,
2011-01-09, 03:42:04,VALID,913.883,VALID,0,VALID,86.846,VALID,0,VALID,20.1318,VALID,162,VALID,1.94453,
2011-01-09, 03:43:04,VALID,913.881,VALID,0,VALID,86.6782,VALID,0,VALID,20.1708,VALID,146,VALID,2.33203,
2011-01-09, 03:44:04,VALID,913.899,VALID,0,VALID,86.5791,VALID,0,VALID,20.2489,VALID,159,VALID,2.46797,
2011-01-09, 03:45:04,VALID,913.906,VALID,0,VALID,86.5334,VALID,0,VALID,20.2489,VALID,169,VALID,1.66602,